Regional Weather Roundup
Issued by NWS

Home | Current Version | Previous Version | Text Only | Print | Product List | Glossary Off
Versions: 1 2 3 4 5 6 7 8 9 10 11 12 13 14 15 16 17 18 19 20 21 22 23 24 25 26 27 28 29 30 31 32 33 34 35 36 37 38 39 40 41 42 43 44 45 46 47 48 49 50

000
ASUS43 KMPX 230201
RWRMN
WEATHER ROUNDUP FOR MINNESOTA
NATIONAL WEATHER SERVICE TWIN CITIES/CHANHASSEN MN
800 PM CST MON JAN 22 2018


NOTE: "FAIR" INDICATES FEW OR NO CLOUDS BELOW 12,000 FEET WITH NO
SIGNIFICANT WEATHER AND/OR OBSTRUCTIONS TO VISIBILITY. N/A MEANS
CURRENT SKY AND/OR WEATHER CONDITIONS ARE NOT AVAILABLE.

MNZ060>063-068>070-230300-
   Twin Cities Metro

CITY           SKY/WX    TMP DP  RH WIND       PRES   REMARKS
TWIN CITIES    LGT SNOW  26  26 100 N15G24    29.75R VSB 1   WCI  14
ST PAUL        LGT SNOW  27  24  89 N12G23    29.76S VSB 3/4 WCI  17
CRYSTAL        LGT SNOW  27  22  81 N14G24    29.75R WCI  16
BLAINE         LGT SNOW  28  27  93 N23G31    29.76R VSB 1   WCI  14
LAKEVILLE        N/A     25 N/A N/A N13       29.73R WCI  13
EDEN PRAIRIE   LGT SNOW  28  24  85 N16       29.74R VSB 3/4 WCI  16
SOUTH ST PAUL  LGT SNOW  27  26  94 N12G18    29.74R WCI  17
LAKE ELMO      CLOUDY    28  27  93 N12G18    29.75R WCI  18
$$
MNZ001>005-007-008-013>017-022>024-027-028-230300-
   Northwest Minnesota

CITY           SKY/WX    TMP DP  RH WIND       PRES   REMARKS
BEMIDJI        CLOUDY    22  18  84 N8G16     29.99S WCI  13
HALLOCK        CLOUDY    25  18  74 CALM      30.09S
ROSEAU         CLOUDY    21  16  79 NE9       30.07F WCI  11
WARROAD        CLOUDY    19  16  86 N10       30.07F WCI   8
CROOKSTON      MOCLDY    23  19  86 N8        30.07S WCI  14
FOSSTON        CLOUDY    21  18  86 N10       30.02S WCI  10
DETROIT LAKES  CLOUDY    25  21  86 N9        29.98S WCI  15
MOORHEAD       CLOUDY    25  19  80 N15G21    30.03S WCI  12
PARK RAPIDS    CLOUDY    23  17  78 NE8G22    29.95R WCI  14
MAHNOMEN       CLOUDY    24  19  82 NE12      30.00R WCI  13
$$
MNZ006-009>011-018-025>026-230300-
   North Central Minnesota

CITY           SKY/WX    TMP DP  RH WIND       PRES   REMARKS
BAUDETTE       CLOUDY    20  14  77 N8        30.04S WCI  10
FLAG ISLAND    CLOUDY    18  12  79 N10       30.07F WCI   6
INTL FALLS     CLOUDY    17  11  77 N6        30.03S WCI   9
WASKISH        CLOUDY    21  18  86 N7        30.02S WCI  13
BIG FORK       CLOUDY    21  18  86 N8        29.97S WCI  12
LONGVILLE      CLOUDY    23  18  80 N3        29.95S
GRAND RAPIDS   CLOUDY    22  16  78 N10       29.96R WCI  11
CRANE LAKE     MOCLDY    16  10  79 N7        30.02S WCI   6
ORR            CLOUDY    18  12  79 CALM      29.95S
COOK           MOCLDY    18  14  86 N5        29.96R WCI  11
WALKER         CLOUDY    23  17  79 NE8       29.97R WCI  14
$$
MNZ012-019>021-037-230300-
   Northeast Minnesota

CITY           SKY/WX    TMP DP  RH WIND       PRES   REMARKS
DULUTH         CLOUDY    22  16  78 N15       29.85S WCI   9
HIBBING        FAIR      19  13  77 N12       29.92S WCI   7
EVELETH        FAIR      26  20  76 N7        29.93S WCI  19
DULUTH HARBOR  CLOUDY    27  21  80 N20G26    29.89S WCI  13
TWO HARBORS    MOCLDY    25  19  80 N7        29.86F WCI  17
SILVER BAY     CLOUDY    21  16  79 VRB8      29.87S WCI  12
GRAND MARAIS     N/A     20  10  65 N16G36    29.89S WCI   6
G MARAIS ARPRT FAIR       9   3  78 N12       29.86S WCI  -6
$$
MNZ029>031-032-039>041-046>048-054>057-064-230300-
   West Central Minnesota

CITY           SKY/WX    TMP DP  RH WIND       PRES   REMARKS
FERGUS FALLS   CLOUDY    25  21  86 N9        29.98R WCI  15
WHEATON        CLOUDY    27  21  80 N15G21    30.01R WCI  15
MORRIS         CLOUDY    28  21  74 N20       29.93R WCI  15
ALEXANDRIA     CLOUDY    25  20  81 N18       29.91R WCI  11
ELBOW LAKE     CLOUDY    25  21  83 N13       29.96S WCI  14
WADENA         CLOUDY    21  18  86 NE12      29.94S WCI   9
GLENWOOD       FAIR      25  21  86 N16       29.90R WCI  12
APPLETON       CLOUDY    28  21  74 N13       29.93R WCI  18
BENSON         CLOUDY    28  21  74 NE18      29.92S WCI  16
MADISON        CLOUDY    30  25  80 N20       29.93R WCI  18
WILLMAR        CLOUDY    28  23  80 N20G26    29.88R WCI  15
$$
MNZ033>034-036-042>043-049>051-058-059-230300-
   Central Minnesota

CITY           SKY/WX    TMP DP  RH WIND       PRES   REMARKS
ST CLOUD       CLOUDY    28  21  75 N16G26    29.84R WCI  16
SAUK CENTRE      N/A     26  21  82 N17G24    29.89R WCI  13
PAYNESVILLE    CLOUDY    29  24  82 N14G21    29.86R WCI  18
AITKIN         CLOUDY    23  18  80 N15G21    29.89S WCI  10
PINE RIVER     CLOUDY    21  18  86 N12G20    29.97R WCI   9
BRAINERD       CLOUDY    26  19  74 N15G24    29.91R WCI  14
STAPLES        CLOUDY    23  18  80 N18G24    29.92S WCI   9
LONG PRAIRIE   CLOUDY    27  21  80 NW14G22   29.90R WCI  15
LITTLE FALLS   CLOUDY    28  18  64 N6G17     29.89R WCI  22
LITCHFIELD     CLOUDY    30  25  80 N22G28    29.83R WCI  17
BUFFALO        CLOUDY    28  23  80 N15G24    29.81R WCI  17
MAPLE LAKE     CLOUDY    29  25  82 MISG      29.82S
HUTCHINSON     MIX PCPN  30  25  83 N18G30    29.80R WCI  18
$$
MNZ037-044-045-052-053-230300-
   East Central Minnesota

CITY           SKY/WX    TMP DP  RH WIND       PRES   REMARKS
PRINCETON      CLOUDY    28  21  74 N16G23    29.83R WCI  17
MORA           CLOUDY    27  21  80 N8        29.85S WCI  18
CAMBRIDGE      FAIR      28  21  74 N10G21    29.81S WCI  19
RUSH CITY      CLOUDY    27  23  84 N14G26    29.81R WCI  16
MOOSE LAKE     CLOUDY    27  19  74 N10G23    29.84S WCI  17
HINCKLEY       CLOUDY    27  21  80 N14G21    29.83R WCI  15
CLOQUET        CLOUDY    21  16  79 N13G22    29.86S WCI   9
MCGREGOR       CLOUDY    27  19  74 N9G20     29.89S WCI  17
$$
MNZ071>073-080-081-089-090-097-098-230300-
   Southwest Minnesota

CITY           SKY/WX    TMP DP  RH WIND       PRES   REMARKS
MONTEVIDEO     CLOUDY    28  23  80 N24G30    29.89S WCI  14
GRANITE FALLS  CLOUDY    32  25  76 NW21G26   29.89R WCI  19
CANBY          CLOUDY    29  24  81 NW18G24   29.93R WCI  17
MARSHALL       CLOUDY    28  23  81 N24G31    29.86R WCI  14
REDWOOD FALLS  CLOUDY    30  24  78 N14G24    29.82R WCI  19
OLIVIA         MOCLDY    30  25  80 N14G24    29.83R WCI  20
PIPESTONE      CLOUDY    25  21  86 N17G28    29.84R WCI  11
WINDOM         LGT SNOW  28  16  59 NW28      29.77R WCI  13
WORTHINGTON    LGT SNOW  26  25  96 N33G40    29.77R FOG     WCI   9
JACKSON        CLOUDY    28  27  93 N17G24    29.75R WCI  16
TRACY          CLOUDY    29  26  87 N17G25    29.84R WCI  17
SLAYTON        CLOUDY    26  24  91 NW24G33   29.82R WCI  11
$$
MNZ065>067-074>077-082>085-091>093-230300-
   South Central Minnesota

CITY           SKY/WX    TMP DP  RH WIND       PRES   REMARKS
MANKATO        LGT SNOW  26  25  96 N22G29    29.74R FOG     WCI  12
NEW ULM          N/A     28  25  86 N14G24    29.78R WCI  17
ST JAMES         N/A     27  27 100 NW21      29.77R WCI  13
FAIRMONT       LGT SNOW  27  26  96 N25G35    29.73R FOG     WCI  12
FARIBAULT      MIX PCPN  27  25  93 N13G18    29.71R WCI  16
OWATONNA       CLOUDY    27  25  93 N18G29    29.67R WCI  13
WASECA           N/A     27  23  86 N24       29.71R WCI  12
ALBERT LEA     LGT SNOW  27  27 100 N18G24    29.64R WCI  13
$$
MNZ078>079-086>088-094>096-230300-
   Southeast Minnesota

CITY           SKY/WX    TMP DP  RH WIND       PRES   REMARKS
ROCHESTER      FLURRIES  29  27  92 N22G31    29.60R WCI  15
RED WING       LGT SNOW  28  23  80 N13       29.68R WCI  18
STANTON        LGT SNOW  28  25  89 N15G21    29.69R WCI  16
DODGE CENTER   LGT SNOW  27  25  93 N17       29.63R WCI  14
WINONA         CLOUDY    34  32  93 N9        29.60R WCI  26
AUSTIN         CLOUDY    28  27  93 N15G22    29.60R WCI  17
PRESTON        CLOUDY    30  28  92 N14G22    29.57R WCI  20
$$
ABBREVIATIONS USED IN REMARKS
   TC - TEMPERATURES IN CELSIUS
  WCI - WIND CHILL INDEX
   HX - HEAT INDEX
  VSB - VISIBILITY
$$




USA.gov is the U.S. government's official web portal to all federal, state and local government web resources and services.